Probability
1 2 4 5 6 6 5 4 2 1 0 0 0 0 0 0 0 0 0 0 0 0 0 0 0 0 0 0 0 0 0 1 2 2 1 0 0 0 0 0 0 0 0
0 1 2 4 6 7 6 4 3 1 0 0 0 0 0 0 0 0 0 0 0 0 0 0 0 0 0 0 0 0 0 1 1 2 2 1 0 0 0 0 0 0 0
0 0 0 2 5 7 7 6 3 1 0 0 0 0 0 0 0 0 0 0 0 0 0 0 0 0 0 0 0 0 0 0 0 1 2 1 0 0 0 1 1 0 0
0 0 0 1 3 6 8 7 4 1 0 0 0 0 0 0 0 0 0 0 0 0 0 0 0 0 0 0 0 0 0 0 0 1 2 1 0 0 0 1 2 1 0
0 0 1 1 2 4 7 7 4 1 0 0 0 0 0 0 0 0 0 0 0 0 0 0 0 0 0 0 0 0 0 0 1 1 2 2 1 0 0 1 2 2 1
0 0 0 0 1 3 5 6 5 2 0 0 0 0 0 0 0 0 0 0 0 0 0 0 0 0 0 0 0 0 0 0 0 1 2 3 2 1 0 1 2 3 3
0 0 0 0 0 2 3 4 4 3 1 0 0 0 0 0 0 0 0 0 0 0 0 0 0 0 0 0 0 0 0 0 0 0 1 2 2 1 0 0 1 2 2
0 0 0 0 0 1 2 3 2 2 1 0 0 0 0 0 0 0 0 0 0 0 0 0 0 0 0 0 0 0 0 0 0 0 0 1 2 2 1 0 0 1 1
0 0 0 0 0 0 1 1 1 1 1 0 0 0 0 0 0 0 0 0 0 0 0 0 0 0 0 0 0 0 0 0 0 0 0 0 1 1 1 0 0 0 0
0 0 0 0 0 0 0 0 0 0 0 0 0 0 0 0 0 0 0 0 0 0 0 0 0 0 0 0 0 0 0 0 0 0 0 0 0 0 0 0 0 0 0
0 0 0 0 0 0 0 0 0 0 0 0 0 0 0 0 0 0 0 0 0 0 0 0 0 0 0 0 0 0 0 0 0 0 0 0 0 0 0 0 0 0 0
0 0 0 0 0 0 0 0 0 0 0 0 0 0 0 0 0 0 0 0 0 0 0 0 0 0 0 0 0 0 0 0 0 0 0 0 0 0 0 0 0 0 0
0 0 0 0 0 0 0 0 0 0 0 1 1 0 0 0 0 0 0 0 0 0 0 0 0 0 0 0 0 0 0 0 0 0 0 0 0 0 0 0 0 0 0
1 0 0 0 0 0 0 0 0 0 0 1 1 1 0 0 0 0 0 0 0 0 0 0 0 0 0 0 0 0 0 0 0 0 0 0 0 0 0 0 0 0 0
1 0 0 0 0 0 0 0 0 0 0 1 1 1 0 0 0 0 0 0 0 0 0 0 0 0 0 0 0 0 0 0 0 0 0 0 0 0 0 0 0 0 0
1 0 0 0 0 0 0 0 0 0 0 0 0 0 0 0 0 0 0 0 0 0 0 0 0 0 0 0 0 0 0 0 0 0 0 0 0 0 0 0 0 0 0
0 0 0 0 0 0 0 0 0 0 0 0 0 0 0 0 0 0 0 0 0 0 0 0 0 0 0 0 0 0 0 0 0 0 0 0 0 0 0 0 0 0 0
0 0 0 0 0 0 0 0 0 0 0 0 0 0 0 0 0 0 0 0 0 0 0 0 0 0 0 0 0 0 0 0 0 0 0 0 0 0 0 0 0 0 0
1 1 0 0 0 0 0 0 0 0 0 0 0 0 0 0 0 0 0 0 0 0 0 0 0 0 0 0 0 0 0 0 0 0 0 0 0 0 0 0 0 0 0
2 2 1 0 0 0 0 0 0 0 0 0 0 0 0 0 0 0 0 0 0 0 0 0 0 0 0 0 0 0 0 0 0 0 0 0 0 0 0 0 0 0 0
3 3 2 0 0 0 0 0 0 0 0 0 0 0 0 0 0 0 0 0 0 0 0 0 0 0 0 0 0 0 0 0 0 0 0 0 0 0 0 0 0 0 0
2 2 1 0 0 0 0 0 0 0 0 0 0 0 0 0 0 0 0 0 0 0 0 0 0 0 0 0 0 0 0 0 0 0 0 0 0 0 0 0 0 0 0
1 1 0 0 0 0 0 0 0 0 0 0 0 0 0 0 0 0 0 0 0 0 0 0 0 0 0 0 0 0 0 0 0 0 0 0 0 0 0 0 0 0 0
0 0 0 1 1 0 0 0 0 0 0 0 0 0 0 0 0 0 0 0 0 0 0 0 0 0 0 0 0 0 0 0 0 0 0 0 0 0 0 0 0 0 0
0 1 1 2 2 1 0 0 1 1 1 0 0 0 0 0 0 0 0 0 0 0 0 0 0 0 0 0 0 0 0 0 0 0 0 0 0 0 0 0 0 0 0
1 2 2 3 3 2 1 0 1 2 1 0 0 0 0 0 0 0 0 0 0 0 0 0 0 0 0 0 0 0 0 0 0 0 0 0 0 0 0 0 0 0 0
Wind_Speed
2 2 2 2 2 1 2 1 1 1 1 1 0 1 1 1 1 1 1 1 1 1 1 1 1 1 1 1 1 2 2 2 2 1 2 2 3 3 3 3 4 4 4
2 3 2 2 2 2 2 2 2 2 1 1 1 1 1 1 1 1 1 1 1 1 1 1 1 1 1 1 1 2 3 3 4 2 2 3 3 4 4 4 4 5 5
3 3 3 3 3 2 2 2 2 1 1 1 1 1 1 2 2 2 1 1 1 1 1 2 2 2 2 2 2 2 3 4 5 4 3 3 4 4 4 5 5 5 5
3 3 3 3 3 2 2 2 2 1 1 1 1 1 1 1 2 2 2 1 1 0 1 1 2 2 2 2 3 3 4 4 5 5 4 5 5 5 5 6 6 6 6
3 3 3 2 3 2 2 2 2 2 2 2 2 1 2 2 2 2 2 2 2 1 1 1 1 2 2 3 4 4 4 5 6 6 5 5 5 6 6 6 7 7 7
4 3 2 2 2 2 2 2 2 2 2 2 1 1 2 2 2 3 3 2 2 2 1 1 1 2 2 3 4 5 5 6 6 7 7 7 7 7 7 7 7 8 8
4 4 2 2 2 3 3 3 2 2 2 1 1 1 2 2 2 2 2 2 2 2 2 2 1 1 1 3 5 5 6 6 7 8 8 8 8 8 8 8 8 9 8
4 4 3 3 3 2 3 3 3 2 2 1 2 1 1 2 2 2 2 3 3 2 2 2 2 2 2 2 3 5 6 7 8 9 9 9 9 9 8 9 9 10 9
4 4 4 3 3 3 4 4 4 4 3 2 2 3 3 3 2 2 2 2 2 2 2 3 3 3 3 2 2 4 6 7 8 9 9 9 9 8 8 9 9 10 9
4 5 4 4 4 3 4 4 4 3 4 4 3 2 2 3 2 2 2 2 2 3 3 3 3 3 3 2 3 4 5 7 8 9 9 9 9 9 9 9 10 10 10
4 4 4 4 4 4 4 4 4 4 4 4 4 2 2 1 2 2 3 2 2 3 3 3 3 3 3 3 2 3 5 6 7 8 9 10 10 9 10 10 10 11 11
3 4 4 4 4 4 4 5 4 4 4 4 4 3 3 3 3 2 3 3 3 3 2 3 3 3 3 2 3 3 4 5 7 8 9 9 10 10 10 11 11 11 11
4 5 4 4 4 4 4 4 4 4 4 5 5 4 4 4 2 2 2 2 3 2 2 2 3 3 2 2 3 5 5 5 6 7 8 9 9 10 10 11 11 12 12
5 5 5 5 5 5 4 4 3 4 3 4 5 4 4 4 3 3 3 2 2 3 2 3 2 2 2 2 4 4 3 6 7 7 8 9 9 10 10 10 11 12 12
4 5 5 5 5 5 5 4 3 4 3 4 4 4 4 3 3 3 2 3 3 4 5 3 2 2 2 2 3 3 3 6 7 8 8 9 9 9 10 10 11 11 12
4 5 5 5 5 5 5 4 4 3 4 4 3 4 4 3 3 3 3 3 3 4 5 3 3 2 2 3 4 3 4 7 7 8 9 10 10 10 10 10 10 11 11
4 4 5 5 5 5 5 5 4 4 5 5 4 4 5 4 3 3 3 3 3 2 4 4 2 2 2 3 3 3 3 3 4 8 10 10 10 9 9 10 11 11 11
4 4 4 4 5 5 5 6 6 5 6 6 5 5 5 3 4 3 3 3 3 3 3 5 3 2 3 3 3 4 4 4 4 7 9 9 9 10 10 10 10 10 11
4 4 4 4 4 4 5 6 6 6 6 6 6 6 5 4 5 4 4 4 3 2 2 3 4 3 2 2 3 3 4 3 4 6 7 8 9 10 11 10 10 10 9
4 5 5 4 5 5 5 5 5 5 5 5 5 5 5 5 5 5 4 4 3 3 2 3 3 3 3 2 2 3 4 3 4 4 5 6 8 9 10 10 9 9 8
4 4 4 4 4 4 4 5 5 5 5 4 4 4 5 5 6 5 4 4 4 3 3 3 3 3 3 2 3 2 4 4 4 3 3 4 4 4 5 8 8 8 7
3 3 4 4 4 4 6 7 5 4 4 4 4 4 4 4 5 6 6 5 5 4 4 3 3 4 4 4 3 3 3 3 5 2 3 4 3 4 4 4 6 7 7
3 3 4 4 4 4 6 6 6 3 3 4 4 3 2 2 2 2 3 2 3 4 5 4 5 5 5 4 3 3 3 4 5 4 3 4 3 4 4 4 7 7 6
2 3 3 3 3 4 5 5 4 2 3 3 3 3 3 2 2 1 1 1 1 2 3 3 3 3 3 3 3 3 4 4 4 3 2 3 3 3 4 3 5 6 6
2 2 2 2 3 4 5 4 2 2 2 1 2 2 2 2 3 2 1 1 1 1 2 2 2 3 4 4 2 1 2 3 4 3 1 2 2 3 3 3 3 6 7
2 2 2 2 2 3 3 2 1 2 2 1 1 2 3 3 3 2 1 2 1 2 1 2 2 2 2 1 2 2 2 2 2 3 1 1 2 2 3 2 2 3 3
Wind_Direction
174 180 188 183 184 176 176 183 204 209 214 222 216 191 184 196 206 211 251 239 238 223 200 214 232 245 267 287 308 322 320 341 315 320 325 325 323 321 320 322 322 321 320
178 183 192 195 196 192 192 189 199 199 210 205 227 223 203 196 195 210 227 250 235 223 214 228 261 277 283 283 298 312 325 314 316 290 304 317 316 313 312 315 317 313 310
181 185 188 206 206 196 192 188 192 178 195 227 238 225 207 203 192 204 207 227 262 272 260 250 272 290 292 299 296 304 315 310 319 300 296 298 301 303 303 303 303 303 303
186 186 186 206 208 193 188 194 191 187 211 222 232 233 218 210 206 202 196 200 206 277 290 285 289 291 295 305 300 299 304 307 315 302 299 291 290 293 296 295 295 294 294
184 188 192 205 207 195 194 205 203 193 205 220 222 227 225 223 214 201 200 199 199 200 233 288 295 286 284 293 294 295 299 301 311 306 301 297 290 287 289 290 292 290 288
188 189 191 202 205 199 198 201 206 214 207 207 218 255 252 243 213 199 204 201 203 199 217 269 268 279 285 286 295 296 297 301 304 307 297 292 288 288 287 288 290 290 289
203 195 197 198 204 209 206 199 201 207 226 181 107 331 318 281 240 226 214 195 202 205 209 239 245 237 260 277 287 290 292 297 299 302 302 292 288 286 289 292 290 289 287
207 208 201 201 205 211 203 198 200 199 219 187 150 121 299 309 298 261 225 206 208 204 215 234 236 233 231 248 282 288 290 295 297 298 302 299 289 288 291 293 297 292 285
209 207 207 211 211 209 211 205 194 199 208 222 186 167 179 220 280 282 245 228 216 219 226 225 227 233 238 233 258 281 289 291 295 299 302 303 296 293 292 296 295 296 292
214 210 206 211 213 217 222 215 206 208 195 210 220 215 208 184 191 256 282 253 239 240 233 235 233 234 235 227 243 277 285 289 292 297 303 303 296 294 295 297 297 300 295
221 211 204 205 214 221 226 221 213 211 207 208 206 205 209 232 212 204 252 260 268 253 244 239 236 236 231 219 233 258 277 289 292 295 299 302 299 297 297 298 298 300 295
227 219 211 209 215 220 225 222 212 211 217 221 219 211 199 198 207 210 237 253 256 258 257 246 235 237 234 226 241 266 277 288 298 297 300 302 299 296 296 296 297 298 294
232 224 220 216 221 220 226 223 217 216 216 215 220 224 221 220 206 205 217 253 269 273 256 250 238 229 239 238 252 268 270 283 292 298 300 300 297 294 294 294 295 296 296
228 221 216 218 223 219 223 220 221 224 222 225 229 228 228 227 217 208 203 208 268 273 258 248 256 231 235 243 258 271 265 280 287 295 297 296 292 291 291 292 294 294 296
236 221 215 214 217 213 213 212 222 223 221 228 229 226 231 235 225 221 215 205 205 249 261 236 233 236 241 244 259 259 260 277 288 291 293 295 290 288 288 291 291 293 295
238 225 218 215 214 212 209 207 220 223 224 233 232 228 230 231 225 220 218 226 222 230 254 243 241 250 256 270 275 272 264 285 288 289 290 292 292 286 286 287 289 290 291
236 230 224 215 213 213 210 207 215 217 225 236 234 229 233 229 228 228 221 223 226 225 253 273 268 260 255 262 283 277 271 268 275 285 286 290 293 293 287 285 286 287 287
232 229 228 219 217 217 214 210 214 219 223 227 228 227 233 230 228 225 222 225 228 224 233 264 276 273 268 263 275 280 287 285 273 282 286 288 291 295 291 286 287 287 285
234 232 228 225 224 221 220 219 216 218 222 224 223 222 227 223 227 226 226 229 231 238 234 247 270 279 277 274 289 288 287 285 284 281 283 282 288 291 291 288 284 285 280
229 231 233 230 228 226 227 225 221 222 223 225 226 222 221 221 226 223 225 223 221 223 224 235 258 272 274 276 282 285 296 290 287 287 285 285 288 290 290 291 283 281 278
234 232 234 238 235 228 226 226 220 222 222 224 230 227 225 229 237 237 232 221 215 217 222 233 248 264 266 271 270 270 283 297 285 272 281 278 277 272 279 283 282 279 281
237 234 232 238 239 243 242 240 232 216 217 218 228 232 229 229 237 242 241 238 232 224 228 236 243 248 257 260 262 270 281 298 288 281 288 284 270 271 272 268 286 288 289
242 236 238 239 245 245 244 242 241 223 210 217 221 218 233 233 252 232 227 239 240 239 240 235 233 241 248 252 252 268 268 270 272 281 287 279 274 273 277 283 292 289 293
245 243 243 241 249 249 253 248 241 221 207 211 210 207 206 208 230 220 218 237 254 254 252 247 230 247 260 258 243 255 266 282 281 275 259 273 288 283 293 289 291 301 306
258 253 257 248 246 251 249 250 233 185 186 216 219 206 204 213 221 231 210 200 262 284 299 286 292 289 287 290 283 288 284 290 289 288 292 277 290 298 294 288 301 315 319
258 267 277 263 256 259 249 236 198 172 180 208 217 211 218 228 236 241 210 193 229 269 312 5 355 329 319 302 302 286 257 261 275 284 307 310 294 316 311 305 311 321 323